EXS45NG EGBB-LGAV

Flight info

Callsign EXS45NG
Flight time 3h 20m
Altitude 33000
Route COWLY Q70 BIG UL9 KONAN DCT KOK UL607 REMBA DCT ARCKY DCT LIRSU DCT KRH DCT UTABA DCT BEMKI DCT ELMEM DCT DIRAB/N0441F350 DCT NIVAS DCT PEVAL DCT PINDO UL607 PIKOS DCT SIGFO UM749 ROPOX
Aircraft B738/M-SDE2E3FGHIRWXY/LB1

Departure

Time 2026-05-04 11:12
Airport Birmingham Airport (EGBB)

Arrival

Time 2026-05-04 14:33
Airport Athens Eleftherios Venizelos International Airport (LGAV)
Time Latitude Longitude Altitude Speed Heading
2026-05-04 11:01 52.45036 -1.73607 322 ft 0 kts 89°
2026-05-04 11:05 52.45035 -1.73657 319 ft 3 kts 88°
2026-05-04 11:06 52.45034 -1.73700 320 ft 4 kts 88°
2026-05-04 11:06 52.45035 -1.73744 319 ft 3 kts 102°
2026-05-04 11:06 52.45029 -1.73734 319 ft 4 kts 133°
2026-05-04 11:06 52.45006 -1.73713 320 ft 4 kts 151°
2026-05-04 11:08 52.44992 -1.73697 322 ft 0 kts 146°
2026-05-04 11:10 52.44603 -1.73607 322 ft 14 kts 145°
2026-05-04 11:12 52.44976 -1.74347 324 ft 121 kts 326°
2026-05-04 11:12 52.45815 -1.75280 331 ft 172 kts 329°
2026-05-04 11:12 52.46843 -1.76421 904 ft 179 kts 329°
2026-05-04 11:12 52.47871 -1.77558 1760 ft 181 kts 328°
2026-05-04 11:13 52.48987 -1.78817 2107 ft 208 kts 328°
2026-05-04 11:13 52.50355 -1.79799 2455 ft 221 kts 353°
2026-05-04 11:13 52.51878 -1.79592 3065 ft 222 kts 22°
2026-05-04 11:13 52.53186 -1.78214 3627 ft 234 kts 47°
2026-05-04 11:14 52.53986 -1.75773 3943 ft 254 kts 79°
2026-05-04 11:14 52.53916 -1.72835 4561 ft 263 kts 103°
2026-05-04 11:14 52.53466 -1.69892 5320 ft 267 kts 104°
2026-05-04 11:16 52.42702 -1.58413 10333 ft 288 kts 160°
2026-05-04 11:16 52.40761 -1.57188 10522 ft 310 kts 160°
2026-05-04 11:16 52.38677 -1.55861 10716 ft 330 kts 160°
2026-05-04 11:17 52.36500 -1.54463 11166 ft 340 kts 160°
2026-05-04 11:17 52.34288 -1.53033 11823 ft 343 kts 159°
2026-05-04 11:19 52.18266 -1.42647 16231 ft 364 kts 159°
2026-05-04 11:19 52.15899 -1.41118 16831 ft 367 kts 159°
2026-05-04 11:19 52.13518 -1.39580 17424 ft 370 kts 159°
2026-05-04 11:19 52.11113 -1.38030 18010 ft 373 kts 159°
2026-05-04 11:20 52.08692 -1.36471 18549 ft 376 kts 159°
2026-05-04 11:20 52.06249 -1.34900 19042 ft 378 kts 159°
2026-05-04 11:20 52.03792 -1.33322 19549 ft 381 kts 159°
2026-05-04 11:20 52.01318 -1.31735 20065 ft 383 kts 159°
2026-05-04 11:22 51.83604 -1.20423 23390 ft 401 kts 160°
2026-05-04 11:22 51.80999 -1.18767 23800 ft 403 kts 160°
2026-05-04 11:23 51.78384 -1.17108 24209 ft 404 kts 160°
2026-05-04 11:23 51.75760 -1.15444 24647 ft 405 kts 160°
2026-05-04 11:24 51.60965 -1.02545 26729 ft 426 kts 123°
2026-05-04 11:25 51.59784 -0.98151 27057 ft 432 kts 111°
2026-05-04 11:25 51.58854 -0.93529 27319 ft 436 kts 110°
2026-05-04 11:25 51.57947 -0.88834 27471 ft 442 kts 110°
2026-05-04 11:26 51.56119 -0.79361 28164 ft 444 kts 111°
2026-05-04 11:27 51.49359 -0.45925 30221 ft 455 kts 112°
2026-05-04 11:28 51.48375 -0.41127 30572 ft 453 kts 112°
2026-05-04 11:28 51.47388 -0.36327 30931 ft 451 kts 112°
2026-05-04 11:28 51.46403 -0.31551 31233 ft 451 kts 112°
2026-05-04 11:28 51.45415 -0.26773 31503 ft 451 kts 112°
2026-05-04 11:29 51.44426 -0.21999 31802 ft 450 kts 112°
2026-05-04 11:29 51.43437 -0.17241 32103 ft 449 kts 112°
2026-05-04 11:29 51.42447 -0.12489 32401 ft 449 kts 111°
2026-05-04 11:29 51.41458 -0.07751 32682 ft 448 kts 111°
2026-05-04 11:31 51.34519 0.25180 34417 ft 446 kts 112°
2026-05-04 11:33 51.27547 0.57747 34993 ft 442 kts 113°
2026-05-04 11:33 51.25545 0.67009 35000 ft 440 kts 113°
2026-05-04 11:34 51.23882 0.76342 35012 ft 442 kts 105°
2026-05-04 11:34 51.22757 0.85978 35014 ft 441 kts 104°
2026-05-04 11:35 51.21587 0.95591 35007 ft 441 kts 105°
2026-05-04 11:35 51.20353 1.05181 35021 ft 442 kts 106°
2026-05-04 11:36 51.19089 1.14793 35023 ft 444 kts 106°
2026-05-04 11:36 51.17866 1.24075 35026 ft 446 kts 106°
2026-05-04 11:37 51.16721 1.32735 35024 ft 448 kts 106°
2026-05-04 11:37 51.15857 1.41983 35025 ft 454 kts 98°
2026-05-04 11:38 51.15466 1.51425 35015 ft 456 kts 98°
2026-05-04 11:38 51.15067 1.61131 35023 ft 457 kts 98°
2026-05-04 11:39 51.14602 1.70867 35021 ft 457 kts 99°
2026-05-04 11:41 51.12788 2.05925 35018 ft 455 kts 99°
2026-05-04 11:41 51.12252 2.15949 35021 ft 454 kts 99°
2026-05-04 11:42 51.11800 2.24284 35020 ft 454 kts 99°
2026-05-04 11:42 51.11251 2.34291 35019 ft 453 kts 99°
2026-05-04 11:43 51.10694 2.44285 35009 ft 453 kts 100°
2026-05-04 11:43 51.10129 2.54273 35013 ft 453 kts 100°
2026-05-04 11:44 51.09541 2.64259 35012 ft 453 kts 102°
2026-05-04 11:44 51.08078 2.73881 35015 ft 447 kts 112°
2026-05-04 11:45 51.06272 2.83351 35023 ft 448 kts 112°
2026-05-04 11:45 51.04491 2.92842 35014 ft 449 kts 112°
2026-05-04 11:46 51.02736 3.02370 35007 ft 450 kts 111°
2026-05-04 11:46 51.00994 3.11850 35011 ft 451 kts 111°
2026-05-04 11:47 50.99224 3.21429 35002 ft 452 kts 111°
2026-05-04 11:47 50.97442 3.31018 34970 ft 454 kts 112°
2026-05-04 11:48 50.95646 3.40630 34982 ft 454 kts 112°
2026-05-04 11:48 50.93840 3.50248 34985 ft 454 kts 112°
2026-05-04 11:49 50.92041 3.59788 34985 ft 454 kts 112°
2026-05-04 11:49 50.90213 3.69379 34988 ft 454 kts 112°
2026-05-04 11:50 50.88359 3.78947 34984 ft 454 kts 112°
2026-05-04 11:50 50.86495 3.88523 34997 ft 454 kts 112°
2026-05-04 11:51 50.84630 3.98070 35003 ft 455 kts 112°
2026-05-04 11:51 50.82753 4.07638 34998 ft 455 kts 112°
2026-05-04 11:52 50.80869 4.17195 35004 ft 455 kts 113°
2026-05-04 11:52 50.78979 4.26741 34995 ft 455 kts 113°
2026-05-04 11:53 50.77077 4.36294 35004 ft 456 kts 113°
2026-05-04 11:53 50.75166 4.45850 34991 ft 456 kts 113°
2026-05-04 11:55 50.67678 4.83868 35013 ft 453 kts 113°
2026-05-04 11:56 50.65746 4.93304 35009 ft 449 kts 118°
2026-05-04 11:56 50.63186 5.02244 35012 ft 447 kts 121°
2026-05-04 11:57 50.60507 5.11074 35017 ft 447 kts 121°
2026-05-04 11:57 50.57869 5.19895 35014 ft 448 kts 121°
2026-05-04 11:58 50.55236 5.28798 35016 ft 450 kts 121°
2026-05-04 11:58 50.52588 5.37760 35004 ft 452 kts 121°
2026-05-04 11:59 50.49934 5.46712 35009 ft 452 kts 121°
2026-05-04 11:59 50.47265 5.55679 35010 ft 452 kts 121°
2026-05-04 12:00 50.44607 5.64569 34994 ft 452 kts 121°
2026-05-04 12:00 50.41930 5.73492 35006 ft 451 kts 121°
2026-05-04 12:01 50.39252 5.82387 34993 ft 451 kts 121°
2026-05-04 12:02 50.29849 6.13365 34988 ft 450 kts 122°
2026-05-04 12:03 50.26943 6.21969 34989 ft 447 kts 125°
2026-05-04 12:03 50.23902 6.30466 34997 ft 448 kts 125°
2026-05-04 12:04 50.20904 6.38998 34979 ft 448 kts 124°
2026-05-04 12:04 50.17749 6.47341 34950 ft 441 kts 134°
2026-05-04 12:05 50.13824 6.54628 34988 ft 439 kts 137°
2026-05-04 12:05 50.09833 6.61825 35000 ft 439 kts 136°
2026-05-04 12:06 50.05882 6.69023 35019 ft 440 kts 136°
2026-05-04 12:06 50.01905 6.76319 35010 ft 442 kts 136°
2026-05-04 12:07 49.97935 6.83608 34999 ft 442 kts 136°
2026-05-04 12:07 49.93959 6.90888 35000 ft 442 kts 136°
2026-05-04 12:08 49.89982 6.98149 35007 ft 442 kts 136°
2026-05-04 12:08 49.86142 7.05138 35007 ft 442 kts 136°
2026-05-04 12:09 49.82145 7.12391 35022 ft 442 kts 136°
2026-05-04 12:09 49.78143 7.19636 35011 ft 442 kts 136°
2026-05-04 12:10 49.74162 7.26821 34983 ft 442 kts 136°
2026-05-04 12:10 49.70152 7.34039 35005 ft 444 kts 136°
2026-05-04 12:11 49.66121 7.41274 35009 ft 444 kts 136°
2026-05-04 12:11 49.62154 7.48376 35009 ft 444 kts 136°
2026-05-04 12:12 49.58119 7.55582 35001 ft 443 kts 136°
2026-05-04 12:12 49.54087 7.62759 35003 ft 443 kts 136°
2026-05-04 12:14 49.37943 7.91303 35009 ft 443 kts 136°
2026-05-04 12:15 49.33885 7.98430 35007 ft 443 kts 136°
2026-05-04 12:15 49.29850 8.05495 34987 ft 443 kts 136°
2026-05-04 12:16 49.25780 8.12603 35005 ft 444 kts 136°
2026-05-04 12:16 49.21695 8.19720 34999 ft 445 kts 136°
2026-05-04 12:17 49.17594 8.26844 35006 ft 446 kts 136°
2026-05-04 12:17 49.13479 8.33973 35013 ft 448 kts 136°
2026-05-04 12:18 49.09353 8.41102 35009 ft 449 kts 136°
2026-05-04 12:18 49.05207 8.48249 35010 ft 449 kts 136°
2026-05-04 12:19 49.01063 8.55374 34999 ft 449 kts 136°
2026-05-04 12:19 48.96617 8.61919 35012 ft 441 kts 147°
2026-05-04 12:20 48.91817 8.67615 34998 ft 435 kts 147°
2026-05-04 12:20 48.87067 8.73222 34999 ft 434 kts 147°
2026-05-04 12:21 48.82321 8.78887 34978 ft 433 kts 147°
2026-05-04 12:21 48.77601 8.84548 34993 ft 433 kts 147°
2026-05-04 12:22 48.72869 8.90217 35001 ft 435 kts 146°
2026-05-04 12:22 48.68103 8.95911 34999 ft 438 kts 146°
2026-05-04 12:23 48.63305 9.01628 35001 ft 440 kts 146°
2026-05-04 12:23 48.58511 9.07327 34997 ft 442 kts 146°
2026-05-04 12:24 48.53782 9.12936 34975 ft 444 kts 146°
2026-05-04 12:24 48.48918 9.18690 34989 ft 445 kts 146°
2026-05-04 12:25 48.44035 9.24452 34982 ft 445 kts 146°
2026-05-04 12:25 48.39253 9.30082 34985 ft 445 kts 146°
2026-05-04 12:26 48.34735 9.35388 34978 ft 445 kts 146°
2026-05-04 12:26 48.30149 9.40764 34979 ft 444 kts 147°
2026-05-04 12:27 48.25285 9.46449 34969 ft 443 kts 146°
2026-05-04 12:27 48.20496 9.52266 34981 ft 442 kts 144°
2026-05-04 12:28 48.15757 9.58146 34983 ft 441 kts 144°
2026-05-04 12:28 48.11820 9.63007 34992 ft 441 kts 144°
2026-05-04 12:29 48.07072 9.68831 34986 ft 440 kts 144°
2026-05-04 12:29 48.02331 9.74622 34979 ft 440 kts 144°
2026-05-04 12:30 47.97585 9.80403 34973 ft 440 kts 144°
2026-05-04 12:30 47.92848 9.86160 34980 ft 439 kts 144°
2026-05-04 12:31 47.88108 9.91907 34988 ft 439 kts 144°
2026-05-04 12:31 47.83393 9.97610 34985 ft 439 kts 144°
2026-05-04 12:32 47.76267 10.06203 34979 ft 439 kts 144°
2026-05-04 12:33 47.71519 10.11912 34975 ft 440 kts 144°
2026-05-04 12:33 47.66756 10.17625 34977 ft 440 kts 144°
2026-05-04 12:34 47.61993 10.23325 34981 ft 440 kts 144°
2026-05-04 12:34 47.57312 10.28915 34998 ft 441 kts 144°
2026-05-04 12:35 47.52481 10.34183 34987 ft 439 kts 150°
2026-05-04 12:35 47.47485 10.38917 35012 ft 440 kts 150°
2026-05-04 12:36 47.42331 10.43814 35010 ft 441 kts 150°
2026-05-04 12:36 47.37407 10.48574 35007 ft 441 kts 149°
2026-05-04 12:37 47.33044 10.52806 35010 ft 440 kts 150°
2026-05-04 12:37 47.27949 10.57731 35013 ft 441 kts 149°
2026-05-04 12:38 47.22920 10.62929 35017 ft 442 kts 147°
2026-05-04 12:38 47.17932 10.68237 35023 ft 441 kts 147°
2026-05-04 12:39 47.12953 10.73485 35028 ft 440 kts 147°
2026-05-04 12:39 47.07968 10.78691 35003 ft 439 kts 147°
2026-05-04 12:40 47.03041 10.83817 35040 ft 435 kts 148°
2026-05-04 12:40 46.98107 10.88938 35055 ft 433 kts 148°
2026-05-04 12:41 46.93193 10.94028 35067 ft 432 kts 148°
2026-05-04 12:41 46.88284 10.99102 35072 ft 431 kts 148°
2026-05-04 12:42 46.83418 11.04120 35098 ft 431 kts 147°
2026-05-04 12:42 46.78701 11.09594 35094 ft 435 kts 140°
2026-05-04 12:43 46.74287 11.15690 35088 ft 438 kts 139°
2026-05-04 12:43 46.69859 11.21845 35086 ft 441 kts 139°
2026-05-04 12:44 46.65383 11.27967 35067 ft 443 kts 140°
2026-05-04 12:44 46.60861 11.34094 35044 ft 444 kts 139°
2026-05-04 12:45 46.56334 11.40201 35040 ft 444 kts 140°
2026-05-04 12:45 46.51826 11.46268 35046 ft 444 kts 140°
2026-05-04 12:46 46.47298 11.52350 35056 ft 444 kts 140°
2026-05-04 12:46 46.42759 11.58432 35056 ft 444 kts 140°
2026-05-04 12:47 46.38220 11.64499 35072 ft 443 kts 140°
2026-05-04 12:47 46.33711 11.70514 35076 ft 442 kts 140°
2026-05-04 12:48 46.29159 11.76571 35074 ft 442 kts 140°
2026-05-04 12:48 46.24665 11.82537 35084 ft 441 kts 140°
2026-05-04 12:49 46.20142 11.88528 35078 ft 441 kts 140°
2026-05-04 12:49 46.15613 11.94512 35079 ft 441 kts 140°
2026-05-04 12:50 46.11089 12.00473 35059 ft 441 kts 140°
2026-05-04 12:50 46.06560 12.06430 35072 ft 440 kts 140°
2026-05-04 12:51 46.02030 12.12374 35087 ft 440 kts 140°
2026-05-04 12:51 45.97492 12.18317 35085 ft 441 kts 140°
2026-05-04 12:52 45.92975 12.24219 35072 ft 442 kts 140°
2026-05-04 12:52 45.88515 12.30316 35074 ft 443 kts 134°
2026-05-04 12:53 45.84482 12.37036 35069 ft 444 kts 132°
2026-05-04 12:53 45.80504 12.43822 35078 ft 445 kts 132°
2026-05-04 12:54 45.76483 12.50571 35087 ft 445 kts 133°
2026-05-04 12:54 45.72431 12.57291 35071 ft 446 kts 133°
2026-05-04 12:55 45.68356 12.64016 35075 ft 447 kts 133°
2026-05-04 12:55 45.64297 12.70700 35074 ft 448 kts 133°
2026-05-04 12:56 45.60202 12.77428 35089 ft 448 kts 133°
2026-05-04 12:56 45.56105 12.84144 35083 ft 449 kts 133°
2026-05-04 12:57 45.51991 12.90873 35078 ft 449 kts 133°
2026-05-04 12:57 45.47903 12.97543 35076 ft 449 kts 133°
2026-05-04 12:58 45.43816 13.04196 35079 ft 449 kts 133°
2026-05-04 12:58 45.39694 13.10890 35084 ft 449 kts 133°
2026-05-04 12:59 45.35574 13.17566 35090 ft 449 kts 133°
2026-05-04 12:59 45.31474 13.24194 35091 ft 449 kts 133°
2026-05-04 13:00 45.27528 13.31073 35089 ft 449 kts 129°
2026-05-04 13:00 45.23720 13.38110 35100 ft 449 kts 129°
2026-05-04 13:01 45.19902 13.45150 35108 ft 450 kts 129°
2026-05-04 13:01 45.16065 13.52148 35099 ft 450 kts 129°
2026-05-04 13:02 45.12207 13.59133 35088 ft 450 kts 129°
2026-05-04 13:02 45.08338 13.66113 35110 ft 451 kts 129°
2026-05-04 13:03 45.04454 13.73105 35105 ft 452 kts 129°
2026-05-04 13:03 45.00583 13.80055 35104 ft 453 kts 129°
2026-05-04 13:04 44.96680 13.87049 35126 ft 453 kts 129°
2026-05-04 13:04 44.92768 13.94041 35133 ft 454 kts 129°
2026-05-04 13:05 44.88846 14.01032 35137 ft 454 kts 129°
2026-05-04 13:05 44.84918 14.08018 35110 ft 455 kts 129°
2026-05-04 13:06 44.80987 14.14993 35114 ft 455 kts 129°
2026-05-04 13:06 44.77069 14.21927 35102 ft 455 kts 129°
2026-05-04 13:07 44.73118 14.28902 35118 ft 455 kts 129°
2026-05-04 13:07 44.69166 14.35862 35124 ft 456 kts 129°
2026-05-04 13:08 44.65200 14.42830 35120 ft 457 kts 129°
2026-05-04 13:08 44.61223 14.49800 35117 ft 458 kts 129°
2026-05-04 13:09 44.57233 14.56777 35122 ft 458 kts 129°
2026-05-04 13:09 44.53234 14.63751 35127 ft 459 kts 129°
2026-05-04 13:10 44.49224 14.70727 35118 ft 460 kts 129°
2026-05-04 13:10 44.45232 14.77656 35126 ft 460 kts 129°
2026-05-04 13:11 44.41207 14.84626 35127 ft 460 kts 129°
2026-05-04 13:11 44.37180 14.91581 35131 ft 460 kts 130°
2026-05-04 13:12 44.33148 14.98529 35123 ft 459 kts 130°
2026-05-04 13:12 44.29122 15.05450 35129 ft 459 kts 130°
2026-05-04 13:13 44.25091 15.12360 35126 ft 458 kts 129°
2026-05-04 13:13 44.21085 15.19214 35134 ft 458 kts 130°
2026-05-04 13:14 44.17053 15.26095 35132 ft 458 kts 130°
2026-05-04 13:14 44.13016 15.32968 35134 ft 459 kts 130°
2026-05-04 13:15 44.08969 15.39842 35119 ft 459 kts 129°
2026-05-04 13:15 44.04914 15.46713 35135 ft 460 kts 130°
2026-05-04 13:16 44.00847 15.53587 35135 ft 461 kts 130°
2026-05-04 13:16 43.96764 15.60473 35132 ft 462 kts 130°
2026-05-04 13:17 43.93357 15.66205 35134 ft 463 kts 130°
2026-05-04 13:17 43.89240 15.73118 35122 ft 465 kts 130°
2026-05-04 13:18 43.85114 15.80029 35134 ft 466 kts 130°
2026-05-04 13:18 43.80974 15.86947 35130 ft 467 kts 130°
2026-05-04 13:19 43.76821 15.93870 35138 ft 468 kts 130°
2026-05-04 13:19 43.72655 16.00797 35126 ft 468 kts 130°
2026-05-04 13:20 43.68507 16.07680 35130 ft 469 kts 130°
2026-05-04 13:20 43.64324 16.14602 35131 ft 469 kts 130°
2026-05-04 13:21 43.60133 16.21522 35126 ft 470 kts 130°
2026-05-04 13:21 43.55938 16.28431 35129 ft 470 kts 130°
2026-05-04 13:22 43.51736 16.35336 35138 ft 469 kts 130°
2026-05-04 13:22 43.47536 16.42221 35127 ft 469 kts 130°
2026-05-04 13:23 43.43327 16.49105 35129 ft 469 kts 130°
2026-05-04 13:23 43.39150 16.55921 35118 ft 469 kts 130°
2026-05-04 13:24 43.34932 16.62786 35127 ft 470 kts 130°
2026-05-04 13:24 43.30704 16.69651 35116 ft 470 kts 130°
2026-05-04 13:25 43.24348 16.79943 35121 ft 471 kts 129°
2026-05-04 13:25 43.20099 16.86803 35118 ft 472 kts 129°
2026-05-04 13:26 43.15843 16.93657 35113 ft 472 kts 130°
2026-05-04 13:26 43.11577 17.00511 35108 ft 473 kts 130°
2026-05-04 13:27 43.07339 17.07305 35128 ft 473 kts 129°
2026-05-04 13:27 43.03056 17.14155 35119 ft 474 kts 129°
2026-05-04 13:28 42.98768 17.20996 35113 ft 474 kts 129°
2026-05-04 13:28 42.94472 17.27834 35120 ft 475 kts 130°
2026-05-04 13:29 42.90165 17.34674 35129 ft 475 kts 130°
2026-05-04 13:29 42.85876 17.41468 35129 ft 476 kts 129°
2026-05-04 13:30 42.81549 17.48309 35130 ft 476 kts 129°
2026-05-04 13:30 42.77213 17.55146 35117 ft 477 kts 129°
2026-05-04 13:31 42.72865 17.61987 35142 ft 477 kts 129°
2026-05-04 13:31 42.68541 17.68774 35124 ft 478 kts 130°
2026-05-04 13:32 42.64178 17.75605 35140 ft 478 kts 129°
2026-05-04 13:32 42.59814 17.82423 35135 ft 478 kts 129°
2026-05-04 13:33 42.55442 17.89238 35141 ft 479 kts 129°
2026-05-04 13:33 42.51066 17.96043 35139 ft 479 kts 130°
2026-05-04 13:34 42.46682 18.02844 35154 ft 479 kts 130°
2026-05-04 13:34 42.42290 18.09643 35143 ft 479 kts 130°
2026-05-04 13:35 42.35695 18.19822 35148 ft 479 kts 130°
2026-05-04 13:36 42.31294 18.26594 35139 ft 479 kts 130°
2026-05-04 13:36 42.26921 18.33308 35147 ft 479 kts 130°
2026-05-04 13:37 42.22512 18.40062 35134 ft 479 kts 130°
2026-05-04 13:37 42.18099 18.46807 35144 ft 479 kts 130°
2026-05-04 13:38 42.13682 18.53542 35133 ft 480 kts 130°
2026-05-04 13:38 42.09260 18.60270 35122 ft 480 kts 130°
2026-05-04 13:39 42.04824 18.67004 35126 ft 480 kts 130°
2026-05-04 13:39 42.00389 18.73721 35117 ft 480 kts 130°
2026-05-04 13:40 41.95945 18.80435 35128 ft 481 kts 130°
2026-05-04 13:40 41.91511 18.87120 35123 ft 482 kts 130°
2026-05-04 13:41 41.87046 18.93837 35114 ft 482 kts 130°
2026-05-04 13:41 41.82570 19.00554 35110 ft 483 kts 130°
2026-05-04 13:42 41.75838 19.10629 35114 ft 484 kts 130°
2026-05-04 13:42 41.71330 19.17356 35116 ft 485 kts 130°
2026-05-04 13:43 41.66822 19.24068 35114 ft 485 kts 130°
2026-05-04 13:43 41.62333 19.30736 35109 ft 485 kts 130°
2026-05-04 13:44 41.57812 19.37437 35111 ft 485 kts 130°
2026-05-04 13:44 41.53288 19.44127 35102 ft 485 kts 130°
2026-05-04 13:45 41.48757 19.50812 35122 ft 485 kts 130°
2026-05-04 13:45 41.44225 19.57485 35114 ft 485 kts 130°
2026-05-04 13:46 41.39687 19.64151 35110 ft 485 kts 130°
2026-05-04 13:46 41.35150 19.70800 35130 ft 485 kts 130°
2026-05-04 13:47 41.30606 19.77444 35128 ft 485 kts 130°
2026-05-04 13:47 41.26067 19.84067 35127 ft 485 kts 130°
2026-05-04 13:48 41.21519 19.90689 35113 ft 484 kts 130°
2026-05-04 13:48 41.17007 19.97242 35108 ft 484 kts 130°
2026-05-04 13:49 41.12459 20.03834 35103 ft 483 kts 130°
2026-05-04 13:49 41.07923 20.10393 35102 ft 483 kts 130°
2026-05-04 13:50 41.03376 20.16956 35095 ft 483 kts 130°
2026-05-04 13:50 40.98827 20.23506 35090 ft 483 kts 130°
2026-05-04 13:51 40.94283 20.30034 35099 ft 482 kts 130°
2026-05-04 13:51 40.89759 20.36520 35102 ft 482 kts 130°
2026-05-04 13:52 40.82927 20.46287 35097 ft 482 kts 130°
2026-05-04 13:53 40.78367 20.52790 35102 ft 482 kts 130°
2026-05-04 13:53 40.73803 20.59284 35098 ft 482 kts 130°
2026-05-04 13:54 40.66976 20.68971 35094 ft 483 kts 130°
2026-05-04 13:55 40.60110 20.78682 35099 ft 483 kts 130°
2026-05-04 13:55 40.53210 20.88413 35096 ft 485 kts 130°
2026-05-04 13:56 40.48602 20.94892 35094 ft 485 kts 130°
2026-05-04 13:57 40.41101 21.03898 35075 ft 488 kts 136°
2026-05-04 13:58 40.31349 21.16230 35112 ft 487 kts 132°
2026-05-04 13:58 40.24104 21.25524 35087 ft 487 kts 133°
2026-05-04 13:59 40.19226 21.31695 35092 ft 487 kts 133°
2026-05-04 14:00 40.11897 21.40920 35084 ft 487 kts 133°
2026-05-04 14:00 40.04583 21.50102 35091 ft 486 kts 133°
2026-05-04 14:01 39.99702 21.56216 35088 ft 487 kts 133°
2026-05-04 14:02 39.92398 21.65341 35089 ft 487 kts 134°
2026-05-04 14:02 39.87497 21.71448 35082 ft 487 kts 134°
2026-05-04 14:03 39.82598 21.77541 35082 ft 488 kts 134°
2026-05-04 14:03 39.77681 21.83642 35095 ft 489 kts 134°
2026-05-04 14:04 39.71116 21.91768 35091 ft 489 kts 134°
2026-05-04 14:04 39.66184 21.97859 35083 ft 490 kts 134°
2026-05-04 14:05 39.58773 22.06987 35081 ft 490 kts 134°
2026-05-04 14:06 39.53817 22.13075 35115 ft 491 kts 134°
2026-05-04 14:06 39.48844 22.19173 35089 ft 491 kts 134°
2026-05-04 14:06 39.46388 22.22177 35070 ft 480 kts 134°
2026-05-04 14:07 39.43984 22.25113 35075 ft 469 kts 134°
2026-05-04 14:07 39.41670 22.27936 35057 ft 458 kts 134°
2026-05-04 14:07 39.39332 22.30789 35085 ft 455 kts 134°
2026-05-04 14:08 39.34761 22.36364 35039 ft 455 kts 134°
2026-05-04 14:08 39.32450 22.39179 34638 ft 456 kts 134°
2026-05-04 14:08 39.30163 22.41960 34767 ft 452 kts 134°
2026-05-04 14:09 39.23127 22.50506 34683 ft 473 kts 134°
2026-05-04 14:09 39.20715 22.53430 34534 ft 478 kts 134°
2026-05-04 14:10 39.15882 22.59271 33758 ft 472 kts 134°
2026-05-04 14:10 39.13495 22.62150 33364 ft 469 kts 134°
2026-05-04 14:10 39.11146 22.64982 32983 ft 466 kts 134°
2026-05-04 14:10 39.08764 22.67851 32618 ft 461 kts 134°
2026-05-04 14:11 39.06460 22.70625 32243 ft 459 kts 134°
2026-05-04 14:11 39.01812 22.76215 31510 ft 454 kts 134°
2026-05-04 14:11 38.99512 22.78976 31181 ft 452 kts 134°
2026-05-04 14:12 38.97214 22.81734 30822 ft 450 kts 134°
2026-05-04 14:12 38.94933 22.84467 30451 ft 448 kts 134°
2026-05-04 14:12 38.90409 22.89882 29641 ft 444 kts 134°
2026-05-04 14:13 38.88161 22.92568 29253 ft 440 kts 134°
2026-05-04 14:13 38.85926 22.95236 28893 ft 437 kts 134°
2026-05-04 14:13 38.83713 22.97877 28496 ft 433 kts 134°
2026-05-04 14:13 38.81515 23.00497 28161 ft 429 kts 134°
2026-05-04 14:14 38.79338 23.03089 27776 ft 425 kts 135°
2026-05-04 14:14 38.75034 23.08208 27054 ft 419 kts 135°
2026-05-04 14:14 38.72902 23.10741 26718 ft 416 kts 135°
2026-05-04 14:15 38.68693 23.15736 26061 ft 409 kts 135°
2026-05-04 14:15 38.64548 23.20645 25356 ft 402 kts 135°
2026-05-04 14:16 38.60463 23.25475 24673 ft 396 kts 135°
2026-05-04 14:16 38.58469 23.27831 24333 ft 393 kts 135°
2026-05-04 14:17 38.54476 23.32541 23677 ft 387 kts 135°
2026-05-04 14:17 38.52508 23.34860 23276 ft 384 kts 135°
2026-05-04 14:17 38.48618 23.39437 22597 ft 377 kts 135°
2026-05-04 14:18 38.46695 23.41699 22272 ft 373 kts 135°
2026-05-04 14:18 38.42916 23.46135 21662 ft 364 kts 134°
2026-05-04 14:19 38.39228 23.50459 21014 ft 357 kts 135°
2026-05-04 14:19 38.37409 23.52586 20713 ft 353 kts 136°
2026-05-04 14:19 38.35344 23.54269 20377 ft 354 kts 158°
2026-05-04 14:19 38.32980 23.55061 20121 ft 351 kts 168°
2026-05-04 14:20 38.30608 23.55564 19845 ft 348 kts 169°
2026-05-04 14:20 38.28229 23.55998 19601 ft 343 kts 170°
2026-05-04 14:20 38.25882 23.56427 19391 ft 338 kts 170°
2026-05-04 14:21 38.21274 23.57223 18638 ft 330 kts 170°
2026-05-04 14:21 38.19017 23.57616 18196 ft 325 kts 170°
2026-05-04 14:21 38.16783 23.58006 17621 ft 325 kts 169°
2026-05-04 14:21 38.14534 23.58385 17078 ft 325 kts 170°
2026-05-04 14:22 38.12307 23.58761 16627 ft 321 kts 170°
2026-05-04 14:22 38.10089 23.59131 16077 ft 321 kts 170°
2026-05-04 14:22 38.07877 23.59501 15579 ft 320 kts 170°
2026-05-04 14:22 38.05701 23.59874 15174 ft 317 kts 170°
2026-05-04 14:23 38.01387 23.60651 14382 ft 311 kts 170°
2026-05-04 14:23 37.99251 23.61053 13940 ft 310 kts 170°
2026-05-04 14:23 37.97120 23.61466 13444 ft 309 kts 170°
2026-05-04 14:24 37.94996 23.61890 12987 ft 308 kts 170°
2026-05-04 14:24 37.92885 23.62320 12540 ft 306 kts 170°
2026-05-04 14:24 37.90790 23.62754 12050 ft 305 kts 170°
2026-05-04 14:24 37.88695 23.63194 11548 ft 305 kts 170°
2026-05-04 14:25 37.86592 23.63645 11002 ft 307 kts 170°
2026-05-04 14:25 37.82340 23.64586 9778 ft 314 kts 170°
2026-05-04 14:25 37.80180 23.65081 9131 ft 316 kts 170°
2026-05-04 14:26 37.78013 23.65596 8472 ft 318 kts 170°
2026-05-04 14:26 37.75837 23.66137 7836 ft 320 kts 170°
2026-05-04 14:26 37.73714 23.66825 7319 ft 316 kts 156°
2026-05-04 14:26 37.72033 23.68490 6822 ft 304 kts 124°
2026-05-04 14:27 37.71310 23.70869 6512 ft 281 kts 90°
2026-05-04 14:27 37.71499 23.73221 6244 ft 261 kts 75°
2026-05-04 14:27 37.72027 23.75332 5866 ft 244 kts 51°
2026-05-04 14:27 37.73248 23.76646 5553 ft 224 kts 24°
2026-05-04 14:28 37.74589 23.77557 5218 ft 216 kts 28°
2026-05-04 14:28 37.75829 23.78592 4831 ft 211 kts 31°
2026-05-04 14:28 37.77027 23.79675 4299 ft 212 kts 33°
2026-05-04 14:28 37.78205 23.80788 3852 ft 209 kts 34°
2026-05-04 14:29 37.80421 23.82911 3286 ft 191 kts 33°
2026-05-04 14:29 37.82482 23.84882 2803 ft 182 kts 34°
2026-05-04 14:30 37.83491 23.85847 2548 ft 180 kts 34°
2026-05-04 14:30 37.84469 23.86782 2305 ft 172 kts 34°
2026-05-04 14:30 37.86284 23.88518 1888 ft 154 kts 34°
2026-05-04 14:31 37.87141 23.89338 1680 ft 154 kts 33°
2026-05-04 14:31 37.88844 23.90967 1234 ft 154 kts 33°
2026-05-04 14:32 37.90517 23.92557 806 ft 151 kts 38°
2026-05-04 14:32 37.91352 23.93353 624 ft 152 kts 39°
2026-05-04 14:32 37.92194 23.94166 418 ft 149 kts 40°
2026-05-04 14:32 37.93014 23.94952 295 ft 142 kts 40°
2026-05-04 14:33 37.93663 23.95571 281 ft 88 kts 37°
2026-05-04 14:33 37.93925 23.95718 282 ft 19 kts
2026-05-04 14:33 37.93998 23.95731 288 ft 4 kts
2026-05-04 14:33 37.94024 23.95727 294 ft 4 kts 336°
2026-05-04 14:34 37.94042 23.95703 294 ft 4 kts 308°
2026-05-04 14:34 37.94058 23.95678 296 ft 4 kts 308°
2026-05-04 14:34 37.94073 23.95653 297 ft 4 kts 307°
2026-05-04 14:34 37.94089 23.95627 297 ft 4 kts 307°
2026-05-04 14:35 37.94099 23.95588 298 ft 6 kts 268°
2026-05-04 14:35 37.94066 23.95533 300 ft 12 kts 216°
2026-05-04 14:35 37.93982 23.95454 299 ft 19 kts 217°
2026-05-04 14:35 37.93873 23.95350 299 ft 20 kts 216°
2026-05-04 14:36 37.93764 23.95246 303 ft 19 kts 217°
2026-05-04 14:36 37.93658 23.95145 299 ft 19 kts 216°
2026-05-04 14:36 37.93555 23.95048 301 ft 18 kts 217°
2026-05-04 14:36 37.93456 23.94953 300 ft 17 kts 217°
2026-05-04 14:37 37.93360 23.94862 303 ft 17 kts 217°
2026-05-04 14:37 37.93268 23.94775 302 ft 16 kts 216°
2026-05-04 14:37 37.93180 23.94690 303 ft 15 kts 217°
2026-05-04 14:37 37.93114 23.94616 303 ft 11 kts 249°
2026-05-04 14:38 37.93141 23.94527 302 ft 11 kts 307°
2026-05-04 14:38 37.93186 23.94452 300 ft 8 kts 307°
2026-05-04 14:38 37.93186 23.94411 301 ft 5 kts 221°
2026-05-04 14:38 37.93158 23.94383 300 ft 5 kts 217°
2026-05-04 14:39 37.93146 23.94371 300 ft 1 kts 217°
2026-05-04 14:39 37.93144 23.94369 300 ft 0 kts 217°